This is the latest recevied weather packets stored in our database for station/object OK1FET-5. If no packets are shown the sender has not sent any weather packets the latest 10 day(s).
| Time | Temp. | Humidity | Pressure | Rain* | Wind** | Luminosity | Snow |
|---|---|---|---|---|---|---|---|
| 1778090988 | 16.11° C | 61% | 1005.2 hPa | - | - | - | - |
| 1778090694 | 16.11° C | 62% | 1005.3 hPa | - | - | - | - |
| 1778090399 | 16.11° C | 65% | 1005.2 hPa | - | - | - | - |
| 1778090105 | 16.11° C | 72% | 1005.1 hPa | - | - | - | - |
| 1778089810 | 16.11° C | 76% | 1005 hPa | - | - | - | - |
| 1778089515 | 16.11° C | 68% | 1005.1 hPa | - | - | - | - |
| 1778089221 | 16.67° C | 57% | 1005.3 hPa | - | - | - | - |
| 1778088926 | 17.22° C | 54% | 1005.2 hPa | - | - | - | - |
| 1778088632 | 17.22° C | 53% | 1005.2 hPa | - | - | - | - |
| 1778088337 | 17.78° C | 53% | 1005.5 hPa | - | - | - | - |
| 1778088042 | 17.78° C | 54% | 1005.5 hPa | - | - | - | - |
| 1778087747 | 18.33° C | 53% | 1005.4 hPa | - | - | - | - |
| 1778087158 | 18.33° C | 52% | 1005.2 hPa | - | - | - | - |
| 1778086864 | 18.33° C | 52% | 1005 hPa | - | - | - | - |
| 1778086568 | 18.89° C | 51% | 1004.9 hPa | - | - | - | - |
| 1778086274 | 18.89° C | 50% | 1005 hPa | - | - | - | - |
| 1778085979 | 18.89° C | 50% | 1005.1 hPa | - | - | - | - |
| 1778085389 | 20° C | 50% | 1005.1 hPa | - | - | - | - |
| 1778085094 | 20° C | 50% | 1005.3 hPa | - | - | - | - |
| 1778084799 | 20.56° C | 50% | 1005.3 hPa | - | - | - | - |
| 1778084504 | 21.11° C | 50% | 1005.2 hPa | - | - | - | - |
| 1778083914 | 21.67° C | 50% | 1005.3 hPa | - | - | - | - |
| 1778083324 | 21.67° C | 49% | 1005.1 hPa | - | - | - | - |
| 1778083028 | 21.67° C | 49% | 1005.2 hPa | - | - | - | - |
| 1778082733 | 21.11° C | 49% | 1005.3 hPa | - | - | - | - |
* Rain since midnight (hover to see other rain measurements)
** Current wind speed in m/s (hover to see current wind gust speed)